ETH779 RKSI-EDDF

Flight info

Callsign ETH779
Flight time N/A
Altitude 26000
Route BINIL3H BINIL Y697 OLBIM/N0486F280 Y697 AGAVO/K0895S0840 A591 IKEKA W4 HCH W200 DOVIV W55 PAMRU W34 VYK B215 LEBOM W104 VEXEB W47 IDSOT W48 DKO W66 NUKTI B215 HAM/K0920S0920 B215 FKG A368 SARIN/K0911F300 N161 RITET/K0906F320 N161 GASBI/N0490F320 N161 LEYLA N644 ADEKI DCT BADIR DCT LAGAS DCT FOQUS DCT SARPI UM10 GOKPA UL746 ODERO DCT OPT/N0479F340 DCT TEGRI DCT ARSIN DCT SUBEN DCT AKINI T161 DEBHI SPESA5B
Aircraft B77L/H-SDE1E2E3FGHIJ2J3J4J5M1RWXY/LB1D1

Departure

Time 2026-05-05 04:46
Airport Incheon International Airport (RKSI)

Arrival

Time N/A
Airport Frankfurt Main Airport (EDDF)
Time Latitude Longitude Altitude Speed Heading
2026-05-05 04:29 37.47451 126.42281 37 ft 0 kts 54°
2026-05-05 04:37 37.47437 126.42256 37 ft 4 kts 54°
2026-05-05 04:37 37.47421 126.42229 37 ft 4 kts 55°
2026-05-05 04:37 37.47408 126.42204 37 ft 4 kts 72°
2026-05-05 04:38 37.47410 126.42179 37 ft 4 kts 140°
2026-05-05 04:38 37.47429 126.42162 36 ft 1 kts 145°
2026-05-05 04:40 37.47405 126.42149 37 ft 6 kts 237°
2026-05-05 04:41 37.47426 126.42111 37 ft 6 kts 335°
2026-05-05 04:41 37.47465 126.42094 37 ft 6 kts 346°
2026-05-05 04:41 37.47504 126.42074 37 ft 6 kts 325°
2026-05-05 04:41 37.47515 126.42026 37 ft 6 kts 261°
2026-05-05 04:42 37.47495 126.41973 37 ft 8 kts 239°
2026-05-05 04:42 37.47485 126.41954 37 ft 8 kts 237°
2026-05-05 04:42 37.47458 126.41906 37 ft 9 kts 234°
2026-05-05 04:43 37.47420 126.41838 36 ft 10 kts 235°
2026-05-05 04:43 37.47378 126.41762 36 ft 11 kts 234°
2026-05-05 04:43 37.47330 126.41680 36 ft 12 kts 233°
2026-05-05 04:43 37.47281 126.41603 37 ft 9 kts 219°
2026-05-05 04:44 37.47219 126.41613 37 ft 10 kts 145°
2026-05-05 04:44 37.47217 126.41615 37 ft 0 kts 146°
2026-05-05 04:45 37.47216 126.41615 36 ft 2 kts 146°
2026-05-05 04:45 37.47041 126.41773 37 ft 68 kts 144°
2026-05-05 04:45 37.46449 126.42298 37 ft 138 kts 145°
2026-05-05 04:45 37.45492 126.43148 39 ft 196 kts 144°
2026-05-05 04:46 37.44351 126.44213 401 ft 207 kts 141°
2026-05-05 04:46 37.43209 126.45371 841 ft 212 kts 156°
2026-05-05 04:46 37.41842 126.46084 1383 ft 216 kts 156°
2026-05-05 04:46 37.40513 126.47031 1835 ft 228 kts 151°
2026-05-05 04:47 37.39108 126.48087 2151 ft 240 kts 153°
2026-05-05 04:47 37.37559 126.48901 2581 ft 245 kts 167°
2026-05-05 04:47 37.35878 126.49444 3033 ft 255 kts 168°
2026-05-05 04:47 37.34124 126.49993 3564 ft 263 kts 168°
2026-05-05 04:48 37.32335 126.50573 4172 ft 268 kts 168°
2026-05-05 04:48 37.30541 126.51166 4852 ft 270 kts 167°
2026-05-05 04:48 37.28702 126.51524 5374 ft 269 kts 188°
2026-05-05 04:48 37.26963 126.50740 5923 ft 266 kts 216°
2026-05-05 04:49 37.25548 126.49244 6531 ft 268 kts 223°
2026-05-05 04:49 37.24170 126.47631 7082 ft 274 kts 223°
2026-05-05 04:49 37.22779 126.45981 7718 ft 276 kts 224°
2026-05-05 04:49 37.21383 126.44320 8352 ft 278 kts 224°
2026-05-05 04:50 37.19968 126.42644 8906 ft 282 kts 224°
2026-05-05 04:50 37.18529 126.40946 9466 ft 286 kts 224°
2026-05-05 04:50 37.17071 126.39226 9951 ft 289 kts 224°
2026-05-05 04:50 37.15601 126.37500 9951 ft 291 kts 223°
2026-05-05 04:51 37.14127 126.35772 9972 ft 290 kts 223°
2026-05-05 04:51 37.12652 126.34049 9970 ft 290 kts 223°
2026-05-05 04:51 37.11244 126.32258 9950 ft 287 kts 236°
2026-05-05 04:51 37.10487 126.29986 10124 ft 286 kts 259°
2026-05-05 04:52 37.10336 126.27439 10313 ft 303 kts 268°
2026-05-05 04:52 37.10326 126.24714 10465 ft 322 kts 269°
2026-05-05 04:52 37.10328 126.21826 10618 ft 341 kts 269°
2026-05-05 04:52 37.10323 126.18775 10814 ft 359 kts 268°
2026-05-05 04:53 37.10303 126.15602 11240 ft 369 kts 268°
2026-05-05 04:53 37.10283 126.12356 11793 ft 375 kts 268°
2026-05-05 04:53 37.10440 126.09134 12268 ft 381 kts 282°
2026-05-05 04:53 37.11492 126.06050 12717 ft 382 kts 298°
2026-05-05 04:54 37.12730 126.03079 13065 ft 388 kts 292°
2026-05-05 04:54 37.13715 125.99974 13703 ft 389 kts 289°